Location: Newark
(25.6108°S, 54.5803°W)
Time: 17:26:24
(UTC+00:00)

Courier 1B Rocket - Pass Details

Date: 04 November 2020
Orbit: 920 x 1202 km, 28.2° (Epoch: 22 November)

Event Time Altitude Azimuth Distance (km) Brightness Sun altitude
Rises 06:09:05 0° 299° (WNW) 4,092 - -32.1°
Reaches altitude 10° 06:11:59 10° 302° (WNW) 3,130 - -31.6°
Exits shadow 06:19:26 62° 11° (N) 1,317 5.4 -30.3°
Maximum altitude 06:19:42 62° 21° (NNE) 1,312 5.4 -30.3°
Drops below altitude 10° 06:27:10 10° 100° (E) 3,032 8.3 -29.0°
Sets 06:29:55 0° 103° (ESE) 3,957 9.2 -28.5°
